カタログに戻る

SL-14 R/B

運用中PO
NORAD 12880·ROCKET BODY·🇷🇺 Russia

打ち上げ Sep 30, 1981 から Plesetsk Cosmodrome

Loading…

次のパス (今後24時間)

TLE

最新Source: Space-Track

元期: Sep 14, 2026, 04:44 UTC

1 12880U 81098B   26257.19750475  .00000030  00000-0  14253-3 0  9996
2 12880  82.6047 162.4445 0006575 199.8505 326.9660 12.42862645 39480

AllMySatでSL-14 R/Bをリアルタイム追跡

Download on the App Store